This is the latest recevied weather packets stored in our database for station/object DK6MAX-13. If no packets are shown the sender has not sent any weather packets the latest 10 day(s).
| Time | Temp. | Humidity | Pressure | Rain* | Wind** | Luminosity | Snow |
|---|---|---|---|---|---|---|---|
| 1777187688 | 11.11° C | 52% | 1025.4 hPa | - | - | - | - |
| 1777187628 | 12.78° C | 57% | 1025.4 hPa | - | - | - | - |
| 1777187628 | 12.78° C | 52% | 1025.4 hPa | - | - | - | - |
| 1777187568 | 12.78° C | 57% | 1025.4 hPa | - | - | - | - |
| 1777187508 | 12.22° C | 57% | 1025.4 hPa | - | - | - | - |
| 1777187508 | 12.22° C | 58% | 1025.4 hPa | - | - | - | - |
| 1777187448 | 11.67° C | 58% | 1025.4 hPa | - | - | - | - |
| 1777187448 | 11.67° C | 58% | 1025.5 hPa | - | - | - | - |
| 1777187448 | 11.67° C | 61% | 1025.5 hPa | - | - | - | - |
| 1777187388 | 11.11° C | 61% | 1025.4 hPa | - | - | - | - |
| 1777187388 | 11.11° C | 61% | 1025.5 hPa | - | - | - | - |
| 1777187388 | 11.11° C | 59% | 1025.4 hPa | - | - | - | - |
| 1777187328 | 10.56° C | 59% | 1025.4 hPa | - | - | - | - |
| 1777187327 | 10.56° C | 58% | 1025.4 hPa | - | - | - | - |
| 1777187268 | 9.44° C | 58% | 1025.4 hPa | - | - | - | - |
| 1777187208 | 10° C | 63% | 1025.4 hPa | - | - | - | - |
| 1777187208 | 10° C | 58% | 1025.4 hPa | - | - | - | - |
| 1777187148 | 10° C | 63% | 1025.4 hPa | - | - | - | - |
| 1777187088 | 10° C | 63% | 1025.4 hPa | - | - | - | - |
| 1777187088 | 10° C | 58% | 1025.4 hPa | - | - | - | - |
| 1777187028 | 10° C | 58% | 1025.3 hPa | - | - | - | - |
| 1777187028 | 10° C | 58% | 1025.4 hPa | - | - | - | - |
| 1777187028 | 10° C | 59% | 1025.3 hPa | - | - | - | - |
| 1777186968 | 10.56° C | 59% | 1025.4 hPa | - | - | - | - |
| 1777186968 | 10.56° C | 59% | 1025.3 hPa | - | - | - | - |
* Rain since midnight (hover to see other rain measurements)
** Current wind speed in m/s (hover to see current wind gust speed)